Über Lemur-2 Lloyd
Group: 3 satellites
Beschreibung wird geladen...
Live-Position
3D-Globus wird geladen...
Nächste Überflüge
Höhenverlauf
Altitude vs Time
uPlot chart will show altitude changes over time
Zweizeiliger Elementsatz
1 60577U 24149DP 26063.14844330 .00016576 00000-0 11087-2 0 9993
2 60577 97.6807 144.3779 0005221 137.9600 222.2029 15.07015264 84568
Epoch: 4. März 2026 •
Age: 21 hours
Aktueller Status
Höhe 568.4 km
Geschwindigkeit 7.58 km/s
Subsatellitenpunkt -57.74°S,
158.08°W
Startdatum 16. Aug. 2024
Alter 1.5 years
Typ other
Technische Details
Klassifizierung Payload
Masse 7.60 kg
Trockenmasse 7.60 kg
Gesamtmasse 7.60 kg
Länge 0.30 m
Durchmesser 0.10 m
Spannweite 1.00 m
Form Box+ 2 pan
Hersteller SPIREG
Bus-Typ Cubesat 3U
Phasenstatus In Orbit
Besitzer/Staat SPIREL/MYRI/L
Große Konstellationen
Loading constellations...